Wind_Speed
114 117 115 106 97 89 79 78 79 72 69 67 60 52 47 43 40 33 36 37 39 45 51 54 56 61 68 71 72 70 69 64 66 66 62 58 56 55 51 47 41 30 31 32
113 110 102 94 87 78 76 76 73 68 65 60 50 45 43 40 38 29 35 36 38 42 48 53 54 58 61 67 70 70 68 67 65 62 58 53 48 47 43 39 32 30 30 35
102 96 91 83 77 75 74 69 70 66 59 49 42 39 40 34 32 28 32 33 38 44 45 50 53 57 56 63 63 67 69 71 68 65 59 54 51 49 45 39 32 31 29 44
89 85 79 75 74 73 69 67 63 57 46 39 37 34 34 29 28 27 30 32 40 41 42 46 52 52 51 54 60 65 64 65 69 67 62 58 54 52 45 36 34 30 38 50
77 74 72 72 72 68 65 61 55 47 41 37 32 29 30 26 25 24 29 29 33 34 38 41 45 47 46 52 54 53 57 55 59 64 60 56 55 48 39 33 37 31 48 62
70 69 69 70 65 64 60 54 48 42 34 32 28 27 25 23 23 23 29 25 30 31 33 35 40 43 38 44 42 43 48 53 54 54 49 47 47 42 37 36 40 40 57 73
67 67 67 63 62 60 53 47 41 36 31 28 25 22 21 21 21 22 25 24 27 27 29 32 36 38 39 42 44 46 47 45 45 49 44 43 42 41 37 43 41 52 64 71
64 64 62 60 56 55 46 41 35 30 28 25 22 19 19 20 15 20 22 23 24 25 27 33 38 42 43 47 50 44 42 44 46 47 46 42 43 41 42 44 41 57 69 71
60 57 57 55 51 48 40 35 30 26 24 22 19 17 19 16 18 24 26 28 25 26 28 32 36 39 42 43 44 44 39 39 43 46 45 44 47 43 43 44 42 64 72 67
54 54 52 50 47 41 33 30 28 23 22 17 14 14 14 16 22 24 24 27 32 33 31 33 35 39 40 42 43 37 37 40 42 44 44 46 46 45 45 44 52 66 74 66
51 51 48 45 41 36 28 26 25 22 18 12 9 12 14 16 18 20 24 28 27 30 34 35 36 38 39 40 38 36 39 40 41 41 41 45 45 48 47 50 62 69 74 70
49 47 43 41 36 31 23 24 22 20 15 12 11 11 12 15 17 20 23 23 24 27 29 31 34 37 41 40 39 40 38 38 38 40 42 48 49 52 54 58 71 71 76 74
45 42 39 35 31 26 22 21 20 18 15 12 12 10 10 14 15 19 20 20 21 25 29 31 33 37 38 39 37 36 37 38 37 38 44 46 51 54 57 63 75 75 77 79
41 39 34 31 27 23 20 19 18 13 10 10 7 9 13 13 16 18 19 21 24 28 31 34 37 40 40 38 39 38 37 36 37 38 42 46 53 56 61 74 79 78 83 86
37 35 29 27 23 21 18 18 16 12 7 5 6 9 12 14 15 18 21 26 30 32 33 35 38 39 36 35 35 36 35 36 38 39 44 49 57 61 64 79 83 83 86 86
34 30 24 24 19 19 18 17 14 11 7 5 7 9 10 13 16 21 27 30 30 31 32 33 34 35 35 34 33 35 36 38 37 39 44 50 59 66 67 80 88 87 89 90
31 25 20 22 18 19 17 16 13 9 7 6 9 11 14 19 22 26 29 30 30 30 31 32 33 34 35 36 35 37 42 43 43 43 45 52 59 64 66 72 89 88 91 92
27 21 20 20 18 19 15 15 13 9 8 10 11 13 16 20 25 27 29 27 26 26 27 30 31 33 34 35 36 36 40 45 49 49 47 52 57 63 69 71 79 92 90 90
24 20 20 21 19 19 14 14 13 11 11 12 13 15 16 18 22 24 23 23 25 25 26 26 25 28 30 32 33 34 36 38 43 45 49 54 59 64 69 74 76 79 92 95
23 22 21 23 18 18 13 14 15 12 13 13 13 15 16 17 17 16 17 21 22 23 22 21 20 23 25 28 30 32 35 38 40 41 44 49 56 59 64 68 74 77 78 84
24 25 25 22 17 19 14 13 15 15 16 14 13 15 17 16 15 14 17 20 21 21 20 18 19 22 23 24 26 28 30 32 36 40 42 43 46 53 58 61 66 74 76 78
28 26 23 14 16 18 17 17 18 20 20 19 17 17 17 16 14 14 15 17 18 18 18 17 19 19 20 23 25 27 28 31 33 35 40 43 45 48 51 55 60 64 69 75
23 22 17 15 19 20 22 21 20 20 18 17 18 17 16 17 20 21 20 18 18 16 14 14 16 18 20 20 21 22 25 29 32 35 40 45 49 51 53 57 59 60 63 64
20 19 22 24 29 26 22 20 20 17 14 14 16 18 20 21 21 22 23 22 21 21 19 20 22 22 22 21 22 23 26 27 29 33 37 40 45 50 54 57 60 64 67 69
27 31 36 36 26 24 25 25 21 17 16 16 17 14 13 14 16 17 18 19 18 18 17 17 16 16 17 17 18 19 21 23 25 28 31 35 39 44 49 53 57 61 65 68
34 31 27 23 29 29 28 25 24 21 21 21 20 17 17 18 17 16 14 13 12 11 9 8 6 7 8 9 11 14 17 20 23 26 28 32 35 39 44 48 52 56 61 65
22 22 25 29 29 29 28 26 24 24 23 22 20 19 18 16 13 12 12 11 11 10 9 8 8 7 8 9 11 14 18 21 25 29 33 38 42 46 49 53 56 59 62 65
Wind_Direction
291 295 297 299 299 300 302 303 301 301 302 298 297 295 290 284 275 264 255 247 237 231 234 235 232 230 231 231 232 232 234 237 242 245 247 248 249 250 253 253 254 239 238 238
293 296 297 298 298 301 304 303 301 303 300 299 297 292 285 277 271 259 250 241 234 228 229 233 231 230 231 231 231 231 231 233 237 242 246 246 247 249 250 249 248 234 226 224
294 295 296 297 301 304 304 303 304 303 300 298 295 287 278 272 266 255 247 240 231 228 223 225 229 227 228 231 231 230 230 232 235 237 241 244 244 247 247 246 241 224 220 210
292 294 297 300 304 305 305 306 304 302 301 298 289 279 275 268 264 253 241 233 232 227 224 221 226 227 224 226 230 229 230 230 232 234 237 239 242 246 245 243 229 204 213 201
294 296 300 305 306 305 307 306 305 304 301 294 284 274 270 266 259 249 241 232 230 229 224 222 224 227 220 223 227 228 229 231 233 237 238 239 240 242 237 221 215 204 196 194
296 299 302 305 305 306 308 308 306 304 298 290 283 277 272 264 251 239 239 227 226 220 220 218 220 225 217 225 228 229 228 229 230 234 236 238 240 236 223 212 205 199 193 195
297 300 303 304 307 307 309 307 305 301 296 291 284 276 266 253 243 238 239 223 224 218 212 208 214 215 211 209 219 223 223 223 227 230 229 231 227 221 214 209 202 194 194 193
297 301 302 305 307 308 309 305 302 299 300 297 285 271 257 249 240 234 228 216 217 214 207 202 204 206 207 205 215 218 218 216 217 221 221 221 218 212 207 206 200 192 191 193
297 299 302 305 307 307 307 302 302 303 300 291 280 268 256 247 230 228 217 209 204 202 207 204 201 200 206 209 213 215 214 216 218 218 216 214 213 213 208 203 194 191 191 195
296 299 302 304 307 304 304 303 301 302 298 292 286 275 259 239 232 226 216 200 199 197 198 197 196 197 200 204 209 208 212 215 214 214 213 212 212 210 207 200 191 189 192 197
294 298 300 303 304 300 303 298 299 301 294 281 274 270 250 235 232 224 215 212 206 203 194 192 193 196 198 202 204 207 208 208 208 209 209 209 206 206 201 193 188 189 194 197
293 296 298 302 299 297 299 294 298 295 284 268 252 244 233 224 217 212 208 208 204 203 198 193 194 194 198 201 202 205 205 206 205 205 202 205 201 201 196 189 188 190 194 199
291 292 296 298 293 293 295 295 296 292 279 260 246 233 216 213 209 204 202 195 196 195 192 190 193 196 198 201 203 203 203 206 205 203 203 203 202 200 193 190 191 194 199 199
286 289 295 290 288 289 292 292 287 279 272 271 263 226 212 204 200 194 191 188 187 191 189 190 193 196 200 200 200 203 206 204 205 202 202 200 202 200 193 189 193 199 202 202
282 287 289 281 281 282 283 283 277 274 253 239 222 216 209 196 191 183 179 186 190 194 196 197 199 199 200 203 203 205 206 202 200 198 199 199 201 200 195 194 198 202 205 205
278 282 279 274 274 272 277 277 270 264 243 214 207 201 187 182 180 182 181 189 191 196 200 201 202 200 198 200 203 204 204 204 206 203 202 202 204 203 199 199 202 205 207 208
273 273 266 264 264 264 276 265 261 248 222 206 202 189 180 179 176 187 191 195 198 198 201 202 204 200 199 201 202 201 204 206 210 210 209 208 209 210 207 206 205 211 212 212
266 260 253 254 252 258 262 251 249 226 207 200 199 191 190 186 187 193 196 196 201 202 205 208 206 203 205 206 206 204 205 209 213 216 215 216 216 215 214 215 214 213 217 219
254 246 242 244 240 252 250 234 230 212 202 196 190 187 189 194 204 207 199 192 199 203 208 210 207 208 210 211 214 212 213 215 216 218 215 217 220 223 219 220 222 221 220 222
244 240 233 236 234 250 234 218 215 199 200 197 186 180 185 194 206 208 202 195 199 203 208 210 208 212 214 215 217 220 220 222 226 226 225 224 225 226 231 229 228 230 231 230
236 236 236 235 225 233 217 207 198 187 188 187 182 180 173 183 194 195 198 197 197 195 203 204 206 212 213 216 216 219 223 226 229 235 239 240 240 238 239 239 237 237 238 238
232 231 231 222 212 221 204 198 189 181 177 182 183 182 174 176 182 191 193 194 194 192 194 196 203 206 208 215 217 218 218 221 222 224 231 238 244 248 251 251 250 248 248 248
224 221 213 200 210 209 199 194 184 176 177 178 180 175 176 180 184 187 190 194 199 194 193 199 201 210 213 218 222 224 226 225 228 230 230 229 229 232 241 249 252 252 253 254
201 198 196 194 209 199 191 179 176 169 173 178 177 177 181 184 184 186 187 186 186 182 182 186 193 201 208 217 226 228 227 228 233 235 237 239 240 241 243 246 246 247 249 250
182 186 190 197 188 179 183 176 160 161 174 176 164 159 176 187 187 182 182 184 190 190 192 196 196 201 209 216 228 239 247 252 256 256 256 254 251 251 251 252 253 254 255 256
188 193 192 168 174 179 177 166 160 165 174 158 148 157 159 156 159 154 154 160 161 169 172 178 190 212 232 249 260 264 266 268 269 268 267 266 265 263 262 260 259 258 257 256
179 165 161 173 173 173 164 162 161 171 165 149 146 150 150 147 144 143 144 147 152 165 179 199 215 233 246 260 266 272 273 271 270 267 263 262 262 262 262 262 263 263 264 264
Height
10299 10291 10282 10272 10266 10258 10247 10235 10221 10216 10213 10204 10201 10196 10194 10194 10192 10198 10199 10203 10209 10216 10223 10232 10246 10254 10263 10275 10287 10302 10311 10323 10329 10338 10350 10360 10368 10374 10381 10385 10392 10400 10406 10409
10280 10270 10261 10254 10246 10239 10228 10215 10203 10200 10195 10189 10186 10181 10178 10179 10178 10186 10185 10190 10195 10202 10211 10219 10231 10242 10250 10261 10272 10286 10299 10309 10316 10326 10336 10346 10354 10361 10369 10376 10383 10391 10398 10399
10260 10251 10242 10235 10228 10220 10209 10199 10188 10182 10178 10175 10171 10168 10165 10168 10168 10172 10174 10179 10184 10185 10197 10206 10218 10228 10236 10245 10260 10272 10283 10295 10303 10313 10323 10334 10342 10351 10358 10366 10374 10383 10389 10390
10241 10234 10226 10218 10211 10201 10191 10183 10174 10168 10165 10162 10158 10157 10155 10157 10158 10161 10161 10167 10170 10179 10186 10197 10203 10213 10226 10237 10245 10257 10270 10281 10290 10299 10311 10322 10331 10340 10346 10356 10363 10376 10375 10385
10226 10219 10209 10201 10194 10184 10177 10169 10162 10157 10152 10149 10148 10147 10145 10147 10149 10152 10152 10158 10164 10173 10181 10187 10193 10202 10217 10225 10234 10247 10258 10270 10281 10287 10299 10312 10322 10329 10337 10346 10355 10365 10369 10378
10209 10202 10196 10188 10180 10170 10163 10156 10150 10146 10144 10140 10138 10137 10139 10140 10141 10143 10143 10151 10156 10165 10173 10182 10189 10195 10210 10219 10230 10240 10249 10259 10269 10280 10292 10304 10314 10317 10328 10338 10347 10354 10362 10365
10194 10188 10182 10174 10167 10157 10153 10146 10141 10138 10135 10132 10131 10131 10132 10131 10133 10135 10138 10145 10148 10158 10167 10176 10183 10192 10201 10210 10217 10227 10236 10249 10262 10270 10281 10292 10299 10308 10322 10330 10337 10345 10356 10367
10180 10175 10168 10162 10155 10146 10143 10137 10133 10131 10127 10125 10124 10124 10124 10125 10129 10130 10134 10140 10143 10150 10159 10168 10175 10183 10192 10199 10207 10219 10231 10240 10249 10258 10269 10282 10288 10299 10310 10320 10329 10343 10350 10361
10168 10163 10156 10150 10144 10138 10134 10129 10125 10124 10121 10119 10119 10119 10118 10122 10123 10125 10130 10133 10139 10146 10153 10162 10170 10178 10185 10195 10204 10212 10221 10232 10242 10250 10260 10271 10278 10290 10300 10310 10323 10332 10345 10355
10156 10151 10145 10140 10135 10130 10127 10122 10118 10118 10116 10115 10115 10115 10116 10118 10118 10122 10126 10130 10132 10138 10146 10155 10164 10172 10180 10188 10197 10206 10214 10224 10233 10239 10250 10261 10270 10282 10292 10304 10317 10327 10340 10352
10144 10139 10135 10131 10126 10122 10121 10118 10114 10113 10112 10112 10110 10110 10112 10114 10116 10120 10122 10126 10132 10138 10144 10151 10159 10167 10174 10181 10192 10202 10208 10216 10225 10234 10244 10254 10264 10273 10285 10297 10308 10321 10332 10340
10132 10129 10126 10122 10118 10116 10115 10112 10111 10109 10109 10108 10106 10107 10109 10111 10115 10119 10121 10126 10133 10138 10145 10152 10159 10165 10171 10179 10189 10195 10204 10210 10219 10227 10234 10241 10253 10263 10276 10287 10298 10310 10321 10328
10121 10119 10117 10113 10111 10110 10110 10109 10107 10105 10105 10106 10106 10107 10108 10109 10114 10118 10122 10127 10134 10139 10144 10150 10156 10163 10169 10175 10184 10193 10200 10207 10215 10223 10227 10237 10247 10256 10268 10280 10289 10300 10308 10317
10111 10110 10109 10105 10104 10104 10105 10105 10102 10102 10102 10102 10104 10105 10105 10109 10112 10116 10122 10127 10132 10136 10140 10145 10150 10158 10166 10175 10183 10190 10196 10204 10211 10218 10225 10234 10241 10250 10260 10271 10278 10287 10295 10304
10101 10101 10101 10098 10099 10100 10100 10099 10098 10098 10099 10100 10102 10103 10106 10108 10112 10116 10121 10124 10127 10132 10137 10143 10149 10156 10166 10175 10181 10187 10194 10201 10207 10213 10220 10227 10233 10243 10254 10263 10268 10277 10286 10297
10092 10093 10093 10091 10094 10094 10095 10095 10095 10095 10096 10098 10100 10102 10105 10108 10112 10115 10118 10120 10125 10131 10136 10142 10149 10156 10164 10171 10179 10187 10193 10199 10206 10212 10216 10223 10227 10234 10243 10251 10257 10264 10273 10282
10083 10085 10086 10086 10089 10090 10093 10093 10093 10093 10094 10096 10098 10100 10103 10105 10108 10112 10116 10120 10124 10129 10135 10141 10147 10155 10161 10167 10173 10181 10188 10194 10200 10207 10214 10218 10221 10228 10238 10244 10249 10254 10262 10270
10075 10078 10079 10080 10083 10085 10089 10089 10090 10091 10092 10094 10097 10099 10102 10105 10107 10110 10114 10119 10124 10130 10135 10140 10146 10153 10159 10165 10170 10177 10182 10188 10193 10199 10206 10213 10218 10223 10229 10234 10240 10248 10253 10259
10067 10070 10072 10074 10078 10081 10084 10086 10087 10088 10091 10093 10096 10098 10102 10105 10107 10110 10115 10120 10125 10129 10134 10140 10147 10152 10158 10164 10169 10174 10179 10184 10188 10193 10198 10202 10208 10212 10217 10223 10230 10236 10241 10246
10060 10063 10066 10068 10075 10076 10080 10083 10085 10088 10089 10091 10095 10099 10102 10105 10108 10113 10117 10120 10125 10129 10135 10140 10146 10151 10155 10160 10165 10171 10176 10181 10185 10190 10194 10197 10202 10206 10212 10218 10222 10225 10232 10237
10053 10055 10059 10064 10070 10072 10076 10081 10084 10086 10088 10090 10094 10098 10101 10105 10108 10113 10117 10120 10124 10128 10133 10138 10143 10147 10152 10156 10160 10165 10171 10177 10183 10187 10191 10194 10198 10201 10204 10208 10212 10216 10220 10222
10044 10049 10053 10061 10067 10070 10074 10078 10080 10084 10086 10089 10092 10096 10100 10104 10108 10112 10116 10121 10124 10128 10133 10137 10140 10144 10149 10152 10155 10160 10165 10169 10174 10178 10183 10187 10191 10194 10196 10198 10200 10203 10206 10208
10040 10046 10052 10059 10064 10067 10072 10075 10080 10083 10086 10090 10094 10096 10099 10103 10106 10110 10114 10117 10121 10126 10131 10136 10140 10142 10145 10148 10152 10155 10158 10161 10164 10168 10170 10172 10174 10177 10182 10184 10185 10186 10188 10190
10037 10044 10050 10056 10058 10064 10072 10078 10080 10083 10087 10091 10094 10097 10100 10103 10106 10109 10112 10115 10120 10124 10128 10132 10135 10137 10140 10143 10146 10149 10153 10155 10158 10159 10162 10163 10164 10166 10167 10167 10166 10166 10167 10167
10033 10038 10043 10047 10056 10067 10073 10075 10080 10084 10089 10093 10096 10099 10102 10105 10107 10111 10115 10119 10122 10125 10129 10132 10136 10140 10143 10145 10147 10148 10149 10151 10152 10153 10154 10154 10155 10155 10155 10155 10155 10154 10153 10151
10027 10033 10040 10051 10058 10066 10071 10076 10080 10087 10092 10095 10098 10102 10105 10107 10110 10114 10117 10121 10124 10127 10130 10132 10134 10137 10140 10142 10143 10144 10145 10145 10145 10144 10143 10142 10141 10139 10137 10135 10134 10132 10130 10128
10029 10037 10046 10051 10060 10066 10072 10078 10083 10089 10093 10097 10101 10104 10106 10110 10113 10117 10120 10123 10126 10129 10132 10135 10136 10137 10139 10140 10140 10140 10139 10138 10136 10134 10131 10128 10125 10122 10119 10117 10115 10112 10109 10106